When you browse on this site, cookies collect data to enhance your experience and personalize the content and advertising you see.
Visit our Privacy Policy to learn more. By continuing to use the site, you agree to this use of cookies and data.
  • în România
  • Lista ţărilor
  • Pe 7 zile
  • Temperatura apei
  • Hartă satelitară
  • Meteo pe hartă
  • Widget-uri
  • user-avatar
    Intrare

    Meteo pe oră la Ilchigulovo

    Astăzi, 21 Februarie, Joi

    Timp Temperatura Precipitaţii Vânt Presiune Umiditate
    00:00 -16°C° 0 mm 2 m/s 720 mmHg 90%
    01:00 -15°C° 0 mm 2 m/s 720 mmHg 89%
    02:00 -15°C° 0 mm 2 m/s 719 mmHg 89%
    03:00 -16°C° 0 mm 2 m/s 719 mmHg 89%
    04:00 -16°C° 0 mm 2 m/s 719 mmHg 90%
    05:00 -16°C° 0 mm 2 m/s 719 mmHg 89%
    06:00 -16°C° 0 mm 2 m/s 719 mmHg 88%
    07:00 -16°C° 0 mm 2 m/s 719 mmHg 88%
    08:00 -14°C° 0 mm 3 m/s 719 mmHg 87%
    09:00 -12°C° 0 mm 3 m/s 719 mmHg 86%
    10:00 -9°C° 0 mm 3 m/s 719 mmHg 85%
    11:00 -8°C° 0 mm 4 m/s 720 mmHg 84%
    12:00 -7°C° 0 mm 4 m/s 720 mmHg 84%
    13:00 -5°C° 0 mm 5 m/s 720 mmHg 83%
    14:00 -5°C° 0 mm 5 m/s 720 mmHg 81%
    15:00 -5°C° 0 mm 5 m/s 720 mmHg 78%
    16:00 -5°C° 0 mm 5 m/s 720 mmHg 76%
    17:00 -5°C° 0 mm 5 m/s 720 mmHg 77%
    18:00 -6°C° 0 mm 5 m/s 720 mmHg 78%
    19:00 -7°C° 0 mm 5 m/s 721 mmHg 78%
    20:00 -7°C° 0 mm 5 m/s 721 mmHg 80%
    21:00 -8°C° 0 mm 5 m/s 721 mmHg 81%
    22:00 -8°C° 0 mm 5 m/s 721 mmHg 82%
    23:00 -8°C° 0 mm 5 m/s 721 mmHg 83%

    Mâine, 22 Februarie, Vineri

    Timp Temperatura Precipitaţii Vânt Presiune Umiditate
    00:00 -8°C° 0 mm 5 m/s 721 mmHg 84%
    01:00 -8°C° 0 mm 5 m/s 722 mmHg 85%
    02:00 -8°C° 0.1 mm 5 m/s 722 mmHg 87%
    03:00 -8°C° 0.1 mm 4 m/s 722 mmHg 88%
    04:00 -8°C° 0.1 mm 4 m/s 722 mmHg 90%
    05:00 -8°C° 0.1 mm 4 m/s 722 mmHg 91%
    06:00 -9°C° 0.1 mm 4 m/s 722 mmHg 92%
    07:00 -9°C° 0.1 mm 4 m/s 722 mmHg 93%
    08:00 -10°C° 0 mm 4 m/s 722 mmHg 92%
    09:00 -11°C° 0 mm 5 m/s 722 mmHg 92%
    10:00 -11°C° 0 mm 5 m/s 722 mmHg 91%
    11:00 -11°C° 0 mm 5 m/s 722 mmHg 90%
    12:00 -11°C° 0 mm 5 m/s 721 mmHg 90%
    13:00 -10°C° 0 mm 6 m/s 721 mmHg 90%
    14:00 -10°C° 0 mm 6 m/s 721 mmHg 89%
    15:00 -10°C° 0 mm 6 m/s 721 mmHg 89%
    16:00 -9°C° 0 mm 6 m/s 721 mmHg 89%
    17:00 -9°C° 0.1 mm 6 m/s 721 mmHg 90%
    18:00 -9°C° 0.1 mm 6 m/s 721 mmHg 90%
    19:00 -8°C° 0.1 mm 5 m/s 721 mmHg 91%
    20:00 -8°C° 0.1 mm 5 m/s 721 mmHg 91%
    21:00 -8°C° 0.1 mm 5 m/s 721 mmHg 92%
    22:00 -7°C° 0.1 mm 5 m/s 722 mmHg 92%
    23:00 -8°C° 0.1 mm 5 m/s 722 mmHg 89%

    Poimâine, 23 Februarie, Sâmbătă

    Timp Temperatura Precipitaţii Vânt Presiune Umiditate
    00:00 -9°C° 0.1 mm 4 m/s 723 mmHg 86%
    01:00 -9°C° 0.1 mm 4 m/s 723 mmHg 84%
    02:00 -12°C° 0 mm 3 m/s 724 mmHg 85%
    03:00 -14°C° 0 mm 3 m/s 724 mmHg 87%
    04:00 -15°C° 0 mm 2 m/s 724 mmHg 88%
    05:00 -16°C° 0 mm 2 m/s 724 mmHg 89%
    06:00 -16°C° 0 mm 2 m/s 725 mmHg 89%
    07:00 -17°C° 0 mm 2 m/s 725 mmHg 89%
    08:00 -15°C° 0 mm 2 m/s 726 mmHg 88%
    09:00 -13°C° 0 mm 2 m/s 726 mmHg 87%
    10:00 -13°C° 0 mm 3 m/s 726 mmHg 86%
    11:00 -12°C° 0 mm 3 m/s 726 mmHg 85%
    12:00 -9°C° 0 mm 3 m/s 726 mmHg 83%
    13:00 -8°C° 0 mm 3 m/s 726 mmHg 82%
    14:00 -8°C° 0 mm 3 m/s 726 mmHg 83%
    15:00 -8°C° 0 mm 3 m/s 726 mmHg 84%
    16:00 -8°C° 0 mm 3 m/s 726 mmHg 85%
    17:00 -8°C° 0.1 mm 2 m/s 726 mmHg 87%
    18:00 -9°C° 0.1 mm 2 m/s 726 mmHg 89%
    19:00 -10°C° 0.1 mm 2 m/s 726 mmHg 91%
    20:00 -12°C° 0 mm 2 m/s 726 mmHg 91%
    21:00 -13°C° 0 mm 2 m/s 726 mmHg 91%
    22:00 -13°C° 0 mm 2 m/s 726 mmHg 91%
    23:00 -14°C° 0 mm 2 m/s 726 mmHg 90%

    24 Februarie, Duminică

    Timp Temperatura Precipitaţii Vânt Presiune Umiditate
    00:00 -15°C° 0 mm 2 m/s 726 mmHg 90%
    01:00 -17°C° 0 mm 2 m/s 726 mmHg 89%
    02:00 -17°C° 0 mm 2 m/s 726 mmHg 89%
    03:00 -17°C° 0 mm 2 m/s 726 mmHg 88%
    04:00 -17°C° 0 mm 2 m/s 726 mmHg 88%
    05:00 -16°C° 0 mm 2 m/s 726 mmHg 88%
    06:00 -16°C° 0 mm 2 m/s 726 mmHg 88%
    07:00 -15°C° 0 mm 2 m/s 726 mmHg 88%
    08:00 -14°C° 0 mm 3 m/s 726 mmHg 86%
    09:00 -12°C° 0 mm 4 m/s 726 mmHg 84%
    10:00 -10°C° 0 mm 4 m/s 726 mmHg 82%
    11:00 -9°C° 0 mm 4 m/s 726 mmHg 80%
    12:00 -8°C° 0 mm 5 m/s 726 mmHg 79%
    13:00 -7°C° 0 mm 5 m/s 726 mmHg 77%
    14:00 -8°C° 0 mm 5 m/s 726 mmHg 78%
    15:00 -8°C° 0 mm 4 m/s 726 mmHg 80%
    16:00 -8°C° 0 mm 4 m/s 726 mmHg 81%
    17:00 -10°C° 0 mm 4 m/s 726 mmHg 82%
    18:00 -10°C° 0 mm 3 m/s 726 mmHg 84%
    19:00 -13°C° 0 mm 3 m/s 726 mmHg 85%
    20:00 -13°C° 0 mm 3 m/s 726 mmHg 86%
    21:00 -13°C° 0 mm 3 m/s 726 mmHg 86%
    22:00 -14°C° 0 mm 3 m/s 726 mmHg 87%
    23:00 -14°C° 0 mm 3 m/s 726 mmHg 87%

    25 Februarie, Luni

    Timp Temperatura Precipitaţii Vânt Presiune Umiditate
    00:00 -14°C° 0 mm 3 m/s 726 mmHg 87%
    01:00 -14°C° 0 mm 3 m/s 726 mmHg 86%
    02:00 -14°C° 0 mm 3 m/s 726 mmHg 87%
    03:00 -14°C° 0 mm 3 m/s 726 mmHg 87%
    04:00 -14°C° 0 mm 3 m/s 726 mmHg 87%
    05:00 -14°C° 0 mm 3 m/s 726 mmHg 87%
    06:00 -14°C° 0 mm 3 m/s 725 mmHg 88%
    07:00 -13°C° 0 mm 2 m/s 725 mmHg 88%
    08:00 -13°C° 0 mm 3 m/s 725 mmHg 86%
    09:00 -10°C° 0 mm 3 m/s 726 mmHg 84%
    10:00 -10°C° 0 mm 4 m/s 726 mmHg 81%
    11:00 -9°C° 0 mm 4 m/s 726 mmHg 80%
    12:00 -6°C° 0 mm 3 m/s 725 mmHg 79%
    13:00 -5°C° 0 mm 3 m/s 725 mmHg 78%
    14:00 -5°C° 0 mm 3 m/s 725 mmHg 81%
    15:00 -3°C° 0 mm 2 m/s 725 mmHg 83%
    16:00 -2°C° 0 mm 2 m/s 725 mmHg 85%
    17:00 -3°C° 0 mm 2 m/s 724 mmHg 88%
    18:00 -5°C° 0 mm 3 m/s 724 mmHg 90%
    19:00 -7°C° 0 mm 4 m/s 723 mmHg 93%
    20:00 -7°C° 0.1 mm 4 m/s 723 mmHg 93%
    21:00 -7°C° 0.1 mm 4 m/s 722 mmHg 92%
    22:00 -7°C° 0.1 mm 4 m/s 722 mmHg 92%
    23:00 -8°C° 0.1 mm 4 m/s 721 mmHg 92%

    26 Februarie, Marţi

    Timp Temperatura Precipitaţii Vânt Presiune Umiditate
    00:00 -8°C° 0.1 mm 4 m/s 721 mmHg 93%
    01:00 -8°C° 0.1 mm 4 m/s 721 mmHg 93%
    02:00 -9°C° 0 mm 4 m/s 720 mmHg 93%
    03:00 -9°C° 0 mm 4 m/s 720 mmHg 93%
    04:00 -9°C° 0 mm 4 m/s 719 mmHg 93%
    05:00 -10°C° 0 mm 4 m/s 719 mmHg 93%
    06:00 -10°C° 0 mm 4 m/s 718 mmHg 93%
    07:00 -10°C° 0 mm 4 m/s 718 mmHg 94%
    08:00 -9°C° 0 mm 4 m/s 718 mmHg 92%
    09:00 -8°C° 0 mm 5 m/s 717 mmHg 90%
    10:00 -7°C° 0 mm 5 m/s 717 mmHg 88%
    11:00 -7°C° 0.1 mm 5 m/s 717 mmHg 85%
    12:00 -6°C° 0.1 mm 6 m/s 716 mmHg 82%
    13:00 -6°C° 0.1 mm 6 m/s 716 mmHg 80%
    14:00 -7°C° 0 mm 5 m/s 715 mmHg 80%
    15:00 -7°C° 0 mm 4 m/s 715 mmHg 80%
    16:00 -8°C° 0 mm 4 m/s 714 mmHg 81%
    17:00 -8°C° 0 mm 3 m/s 714 mmHg 84%
    18:00 -10°C° 0 mm 3 m/s 714 mmHg 86%
    19:00 -10°C° 0 mm 2 m/s 713 mmHg 89%
    20:00 -12°C° 0 mm 2 m/s 713 mmHg 89%
    21:00 -13°C° 0 mm 2 m/s 713 mmHg 89%
    22:00 -15°C° 0 mm 2 m/s 713 mmHg 89%
    23:00 -15°C° 0 mm 2 m/s 713 mmHg 89%
    Arată mai mult